METEOSAT-8 (MSG-1)

Last updated on Nov. 21, 2019, 4:15 a.m. UTC

1 27509U 02040B   19324.17132677  .00000140  00000-0  00000+0 0  9996
2 27509   6.3591  54.9419 0001852 191.9986 275.0002  1.00270485 63170
UTC
Height (km)
Latitude
Longitude
Inclination
Orbital Period
UTC large
Height (km)
Speed (km/s)
/
Latitude / Longitude
Inclination (degrees)
Orbital Period (minutes)
Azimuth
Elevation
Range (km)
Doppler Factor
iOS Compass Heading
iOS Angle

Next 30 passes for location: Hong Kong

Rise time Rise Azimuth (degrees) Set time Set Azimuth (degrees) Duration Max altitude (degrees)

No matching passes for this satellites